VIR74W KMCO-EGCC

Flight info

Callsign VIR74W
Flight time 7h 50m
Altitude 35000
Route MZULO3 ETECK M202 UKOKA/M085F350 DCT JNFOX DCT KINER DCT DRYED/M085F370 M201 CARAC/N0488F370 DCT JOOPY/M085F370 DCT 49N050W 50N040W 52N030W 53N020W DCT MALOT/N0485F370 DCT GISTI DCT BOFUM Q37 MALUD
Aircraft A35K/H-SDE2E3GHIJ3J4J5LM1ORWXY/LB1D1

Departure

Time 2026-04-22 00:41
Airport Orlando International Airport (KMCO)

Arrival

Time 2026-04-22 08:32
Airport Manchester Airport (EGCC)
Time Latitude Longitude Altitude Speed Heading
2026-04-21 23:50 28.42658 -81.30363 109 ft 0 kts 38°
2026-04-22 00:28 28.42651 -81.30370 107 ft 2 kts 41°
2026-04-22 00:29 28.42639 -81.30383 107 ft 2 kts 48°
2026-04-22 00:29 28.42629 -81.30397 107 ft 2 kts 60°
2026-04-22 00:29 28.42623 -81.30415 106 ft 2 kts 82°
2026-04-22 00:29 28.42624 -81.30433 106 ft 2 kts 115°
2026-04-22 00:30 28.42632 -81.30447 104 ft 1 kts 142°
2026-04-22 00:30 28.42635 -81.30449 104 ft 0 kts 146°
2026-04-22 00:34 28.42633 -81.30448 104 ft 2 kts 146°
2026-04-22 00:34 28.42615 -81.30433 104 ft 4 kts 140°
2026-04-22 00:35 28.42565 -81.30406 106 ft 14 kts 170°
2026-04-22 00:35 28.42462 -81.30402 105 ft 15 kts 180°
2026-04-22 00:35 28.42368 -81.30367 106 ft 14 kts 118°
2026-04-22 00:35 28.42359 -81.30261 107 ft 13 kts 90°
2026-04-22 00:36 28.42360 -81.30160 109 ft 12 kts 89°
2026-04-22 00:36 28.42362 -81.30049 109 ft 18 kts 89°
2026-04-22 00:36 28.42362 -81.29896 109 ft 19 kts 90°
2026-04-22 00:36 28.42322 -81.29799 108 ft 14 kts 162°
2026-04-22 00:37 28.42223 -81.29792 108 ft 15 kts 179°
2026-04-22 00:37 28.42114 -81.29791 108 ft 17 kts 179°
2026-04-22 00:37 28.41941 -81.29789 108 ft 28 kts 180°
2026-04-22 00:37 28.41743 -81.29788 108 ft 29 kts 179°
2026-04-22 00:38 28.41543 -81.29787 107 ft 29 kts 179°
2026-04-22 00:38 28.41341 -81.29784 107 ft 29 kts 178°
2026-04-22 00:38 28.41136 -81.29781 106 ft 29 kts 179°
2026-04-22 00:38 28.40938 -81.29779 105 ft 24 kts 180°
2026-04-22 00:39 28.40851 -81.29769 105 ft 4 kts 154°
2026-04-22 00:39 28.40830 -81.29740 105 ft 5 kts 116°
2026-04-22 00:39 28.40823 -81.29710 105 ft 7 kts 99°
2026-04-22 00:39 28.40822 -81.29671 104 ft 6 kts 90°
2026-04-22 00:40 28.40824 -81.29619 103 ft 12 kts 83°
2026-04-22 00:40 28.40889 -81.29562 104 ft 14 kts
2026-04-22 00:40 28.41089 -81.29562 105 ft 59 kts 360°
2026-04-22 00:40 28.41769 -81.29568 110 ft 135 kts 359°
2026-04-22 00:41 28.42910 -81.29601 374 ft 179 kts
2026-04-22 00:41 28.44155 -81.29593 1272 ft 177 kts 11°
2026-04-22 00:41 28.45374 -81.29104 1834 ft 196 kts 38°
2026-04-22 00:41 28.46342 -81.27971 2077 ft 209 kts 56°
2026-04-22 00:42 28.47241 -81.26564 2287 ft 230 kts 56°
2026-04-22 00:42 28.48201 -81.25065 2796 ft 238 kts 56°
2026-04-22 00:42 28.49202 -81.23534 3370 ft 244 kts 55°
2026-04-22 00:42 28.50143 -81.21914 3984 ft 246 kts 66°
2026-04-22 00:43 28.50650 -81.20054 4631 ft 248 kts 78°
2026-04-22 00:43 28.50983 -81.18118 5259 ft 251 kts 78°
2026-04-22 00:43 28.51173 -81.16165 5864 ft 255 kts 88°
2026-04-22 00:43 28.51130 -81.14123 6383 ft 262 kts 91°
2026-04-22 00:44 28.51040 -81.12030 6918 ft 267 kts 91°
2026-04-22 00:44 28.50951 -81.09906 7481 ft 270 kts 91°
2026-04-22 00:44 28.50865 -81.07767 8083 ft 272 kts 91°
2026-04-22 00:44 28.50781 -81.05604 8637 ft 276 kts 90°
2026-04-22 00:45 28.50647 -81.03409 9188 ft 280 kts 95°
2026-04-22 00:45 28.50362 -81.01201 9759 ft 284 kts 97°
2026-04-22 00:45 28.50038 -80.98960 10221 ft 292 kts 97°
2026-04-22 00:45 28.49698 -80.96621 10439 ft 307 kts 97°
2026-04-22 00:46 28.49344 -80.94164 10636 ft 322 kts 97°
2026-04-22 00:46 28.48973 -80.91596 10865 ft 336 kts 97°
2026-04-22 00:46 28.48587 -80.88921 11081 ft 349 kts 97°
2026-04-22 00:46 28.48189 -80.86153 11281 ft 362 kts 97°
2026-04-22 00:47 28.47835 -80.83272 11491 ft 373 kts 92°
2026-04-22 00:47 28.47899 -80.80301 11729 ft 380 kts 82°
2026-04-22 00:47 28.48222 -80.77300 12124 ft 384 kts 81°
2026-04-22 00:47 28.48572 -80.74275 12538 ft 388 kts 81°
2026-04-22 00:48 28.48921 -80.71225 12965 ft 391 kts 81°
2026-04-22 00:48 28.49268 -80.68148 13389 ft 394 kts 81°
2026-04-22 00:48 28.49615 -80.65046 13758 ft 397 kts 81°
2026-04-22 00:48 28.49957 -80.61965 14167 ft 400 kts 81°
2026-04-22 00:49 28.50306 -80.58817 14520 ft 403 kts 81°
2026-04-22 00:49 28.50657 -80.55636 14852 ft 407 kts 81°
2026-04-22 00:49 28.51011 -80.52421 15196 ft 411 kts 81°
2026-04-22 00:49 28.51367 -80.49186 15566 ft 414 kts 81°
2026-04-22 00:50 28.51724 -80.45923 15918 ft 418 kts 81°
2026-04-22 00:50 28.52085 -80.42626 16280 ft 421 kts 81°
2026-04-22 00:50 28.52446 -80.39313 16661 ft 424 kts 81°
2026-04-22 00:50 28.52809 -80.35974 17015 ft 427 kts 81°
2026-04-22 00:51 28.53177 -80.32604 17384 ft 430 kts 81°
2026-04-22 00:51 28.53723 -80.29260 17746 ft 431 kts 73°
2026-04-22 00:51 28.54718 -80.26039 18118 ft 432 kts 65°
2026-04-22 00:51 28.55903 -80.22886 18484 ft 435 kts 64°
2026-04-22 00:52 28.57116 -80.19727 18819 ft 437 kts 64°
2026-04-22 00:52 28.58334 -80.16543 19149 ft 439 kts 64°
2026-04-22 00:52 28.59553 -80.13343 19459 ft 442 kts 64°
2026-04-22 00:52 28.60775 -80.10121 19766 ft 445 kts 64°
2026-04-22 00:53 28.62002 -80.06882 20076 ft 447 kts 64°
2026-04-22 00:53 28.63236 -80.03622 20366 ft 450 kts 64°
2026-04-22 00:53 28.64474 -80.00344 20681 ft 452 kts 64°
2026-04-22 00:53 28.65719 -79.97045 20985 ft 455 kts 64°
2026-04-22 00:54 28.66951 -79.93776 21283 ft 457 kts 64°
2026-04-22 00:54 28.68207 -79.90441 21570 ft 459 kts 64°
2026-04-22 00:54 28.69470 -79.87086 21885 ft 462 kts 63°
2026-04-22 00:54 28.70737 -79.83715 22186 ft 464 kts 63°
2026-04-22 00:55 28.72009 -79.80329 22483 ft 466 kts 63°
2026-04-22 00:55 28.73288 -79.76921 22778 ft 469 kts 63°
2026-04-22 00:55 28.75861 -79.70055 23355 ft 473 kts 63°
2026-04-22 00:56 28.77155 -79.66598 23645 ft 476 kts 63°
2026-04-22 00:56 28.78454 -79.63123 23924 ft 478 kts 63°
2026-04-22 00:56 28.79760 -79.59629 24175 ft 480 kts 63°
2026-04-22 00:56 28.81204 -79.56212 24420 ft 478 kts 56°
2026-04-22 00:57 28.82998 -79.53032 24680 ft 476 kts 51°
2026-04-22 00:57 28.84857 -79.50062 24940 ft 477 kts 50°
2026-04-22 00:57 28.86803 -79.46984 25203 ft 478 kts 50°
2026-04-22 00:57 28.88747 -79.43903 25456 ft 480 kts 50°
2026-04-22 00:58 28.90696 -79.40805 25707 ft 482 kts 50°
2026-04-22 00:58 28.92655 -79.37687 25972 ft 484 kts 50°
2026-04-22 00:58 28.94617 -79.34561 26255 ft 485 kts 50°
2026-04-22 00:58 28.96583 -79.31422 26520 ft 487 kts 50°
2026-04-22 00:59 28.98560 -79.28265 26778 ft 489 kts 50°
2026-04-22 00:59 29.00513 -79.25144 27045 ft 491 kts 50°
2026-04-22 00:59 29.02504 -79.21958 27317 ft 493 kts 50°
2026-04-22 00:59 29.04498 -79.18765 27581 ft 495 kts 50°
2026-04-22 01:00 29.06501 -79.15556 27852 ft 497 kts 50°
2026-04-22 01:00 29.08513 -79.12329 28116 ft 499 kts 49°
2026-04-22 01:00 29.10526 -79.09099 28384 ft 500 kts 49°
2026-04-22 01:00 29.12553 -79.05843 28625 ft 502 kts 49°
2026-04-22 01:01 29.14584 -79.02580 28864 ft 504 kts 49°
2026-04-22 01:01 29.16618 -78.99307 29094 ft 506 kts 49°
2026-04-22 01:01 29.18664 -78.96013 29330 ft 508 kts 49°
2026-04-22 01:01 29.20716 -78.92708 29554 ft 511 kts 49°
2026-04-22 01:02 29.22780 -78.89379 29775 ft 513 kts 49°
2026-04-22 01:02 29.24844 -78.86048 30060 ft 513 kts 49°
2026-04-22 01:02 29.26907 -78.82714 30403 ft 513 kts 49°
2026-04-22 01:02 29.28967 -78.79382 30702 ft 512 kts 49°
2026-04-22 01:03 29.31022 -78.76056 31030 ft 512 kts 49°
2026-04-22 01:03 29.33077 -78.72729 31385 ft 510 kts 49°
2026-04-22 01:03 29.35121 -78.69415 31745 ft 509 kts 49°
2026-04-22 01:03 29.37164 -78.66105 32040 ft 508 kts 49°
2026-04-22 01:04 29.39234 -78.62897 32376 ft 506 kts 46°
2026-04-22 01:04 29.41360 -78.59687 32733 ft 504 kts 46°
2026-04-22 01:04 29.43476 -78.56487 33088 ft 502 kts 47°
2026-04-22 01:04 29.45580 -78.53289 33443 ft 501 kts 47°
2026-04-22 01:05 29.47756 -78.50193 33783 ft 494 kts 41°
2026-04-22 01:05 29.50222 -78.47509 34148 ft 484 kts 32°
2026-04-22 01:05 29.52891 -78.45195 34476 ft 479 kts 29°
2026-04-22 01:05 29.55611 -78.42976 34705 ft 479 kts 28°
2026-04-22 01:06 29.58357 -78.40806 34860 ft 480 kts 27°
2026-04-22 01:06 29.61128 -78.38650 35046 ft 481 kts 27°
2026-04-22 01:06 29.63901 -78.36492 35234 ft 482 kts 27°
2026-04-22 01:06 29.66689 -78.34312 35318 ft 487 kts 27°
2026-04-22 01:07 29.72273 -78.29912 35322 ft 490 kts 28°
2026-04-22 01:07 29.77886 -78.25447 35322 ft 490 kts 28°
2026-04-22 01:08 29.83482 -78.20987 35323 ft 490 kts 28°
2026-04-22 01:08 29.89088 -78.16518 35323 ft 490 kts 28°
2026-04-22 01:09 29.94694 -78.12044 35322 ft 490 kts 28°
2026-04-22 01:09 30.00292 -78.07570 35323 ft 490 kts 28°
2026-04-22 01:10 30.05889 -78.03092 35325 ft 489 kts 28°
2026-04-22 01:10 30.11483 -77.98608 35325 ft 489 kts 28°
2026-04-22 01:11 30.17043 -77.94147 35324 ft 489 kts 28°
2026-04-22 01:11 30.22671 -77.89624 35325 ft 489 kts 28°
2026-04-22 01:12 30.28226 -77.85154 35323 ft 489 kts 28°
2026-04-22 01:12 30.33816 -77.80649 35326 ft 489 kts 28°
2026-04-22 01:13 30.39067 -77.75540 35323 ft 502 kts 42°
2026-04-22 01:13 30.42862 -77.68635 35326 ft 518 kts 61°
2026-04-22 01:14 30.45528 -77.60832 35319 ft 522 kts 64°
2026-04-22 01:14 30.48009 -77.52908 35325 ft 523 kts 65°
2026-04-22 01:15 30.50499 -77.44986 35323 ft 522 kts 64°
2026-04-22 01:15 30.53017 -77.37085 35321 ft 522 kts 64°
2026-04-22 01:16 30.55546 -77.29184 35324 ft 522 kts 64°
2026-04-22 01:16 30.58071 -77.21284 35329 ft 522 kts 64°
2026-04-22 01:17 30.60589 -77.13379 35318 ft 522 kts 64°
2026-04-22 01:17 30.63083 -77.05527 35338 ft 522 kts 64°
2026-04-22 01:18 30.66063 -76.97926 35331 ft 513 kts 53°
2026-04-22 01:18 30.69789 -76.90880 35327 ft 511 kts 51°
2026-04-22 01:19 30.73630 -76.83918 35326 ft 511 kts 51°
2026-04-22 01:19 30.77474 -76.76960 35329 ft 512 kts 51°
2026-04-22 01:20 30.81301 -76.69982 35331 ft 512 kts 51°
2026-04-22 01:20 30.85120 -76.62987 35331 ft 512 kts 52°
2026-04-22 01:21 30.88936 -76.55979 35334 ft 513 kts 52°
2026-04-22 01:21 30.92749 -76.48967 35334 ft 513 kts 52°
2026-04-22 01:22 30.96561 -76.41944 35335 ft 513 kts 52°
2026-04-22 01:22 31.00373 -76.34910 35334 ft 513 kts 52°
2026-04-22 01:23 31.04185 -76.27864 35336 ft 513 kts 52°
2026-04-22 01:23 31.07962 -76.20869 35336 ft 513 kts 52°
2026-04-22 01:24 31.11762 -76.13818 35335 ft 513 kts 52°
2026-04-22 01:24 31.15559 -76.06760 35338 ft 513 kts 52°
2026-04-22 01:25 31.19356 -75.99689 35338 ft 513 kts 52°
2026-04-22 01:25 31.23150 -75.92612 35332 ft 513 kts 52°
2026-04-22 01:26 31.26939 -75.85531 35338 ft 513 kts 52°
2026-04-22 01:26 31.30719 -75.78453 35334 ft 513 kts 52°
2026-04-22 01:27 31.34496 -75.71369 35336 ft 513 kts 52°
2026-04-22 01:27 31.38266 -75.64285 35347 ft 513 kts 52°
2026-04-22 01:28 31.42033 -75.57192 35342 ft 513 kts 52°
2026-04-22 01:28 31.45796 -75.50095 35344 ft 513 kts 52°
2026-04-22 01:29 31.48918 -75.44196 35346 ft 512 kts 52°
2026-04-22 01:29 31.53279 -75.35943 35345 ft 512 kts 52°
2026-04-22 01:30 31.57026 -75.28836 35349 ft 512 kts 52°
2026-04-22 01:30 31.60769 -75.21724 35350 ft 512 kts 52°
2026-04-22 01:31 31.63878 -75.15808 35352 ft 512 kts 52°
2026-04-22 01:31 31.67612 -75.08689 35351 ft 512 kts 52°
2026-04-22 01:32 31.71341 -75.01565 35349 ft 512 kts 52°
2026-04-22 01:32 31.75063 -74.94441 35349 ft 512 kts 52°
2026-04-22 01:33 31.78785 -74.87306 35353 ft 512 kts 52°
2026-04-22 01:33 31.82501 -74.80168 35354 ft 512 kts 52°
2026-04-22 01:34 31.86215 -74.73019 35353 ft 512 kts 52°
2026-04-22 01:34 31.89924 -74.65869 35356 ft 512 kts 52°
2026-04-22 01:35 31.93626 -74.58717 35355 ft 512 kts 52°
2026-04-22 01:35 31.97327 -74.51554 35353 ft 511 kts 52°
2026-04-22 01:36 32.01024 -74.44386 35352 ft 511 kts 52°
2026-04-22 01:36 32.04688 -74.37268 35350 ft 511 kts 52°
2026-04-22 01:37 32.08377 -74.30087 35355 ft 511 kts 52°
2026-04-22 01:37 32.12055 -74.22915 35357 ft 511 kts 52°
2026-04-22 01:38 32.15727 -74.15739 35357 ft 511 kts 52°
2026-04-22 01:38 32.19394 -74.08560 35359 ft 510 kts 52°
2026-04-22 01:39 32.23055 -74.01380 35361 ft 510 kts 52°
2026-04-22 01:39 32.26709 -73.94198 35360 ft 510 kts 52°
2026-04-22 01:40 32.30338 -73.87055 35358 ft 509 kts 52°
2026-04-22 01:40 32.33980 -73.79871 35369 ft 509 kts 52°
2026-04-22 01:41 32.37615 -73.72687 35358 ft 509 kts 52°
2026-04-22 01:41 32.41246 -73.65496 35361 ft 509 kts 52°
2026-04-22 01:42 32.44868 -73.58311 35359 ft 508 kts 52°
2026-04-22 01:42 32.48484 -73.51122 35357 ft 508 kts 52°
2026-04-22 01:43 32.52099 -73.43922 35363 ft 507 kts 52°
2026-04-22 01:43 32.55700 -73.36737 35359 ft 507 kts 52°
2026-04-22 01:44 32.59299 -73.29542 35363 ft 507 kts 53°
2026-04-22 01:44 32.62891 -73.22346 35359 ft 507 kts 53°
2026-04-22 01:45 32.66478 -73.15147 35357 ft 507 kts 53°
2026-04-22 01:45 32.70060 -73.07943 35357 ft 506 kts 53°
2026-04-22 01:46 32.73633 -73.00743 35358 ft 506 kts 53°
2026-04-22 01:46 32.77205 -72.93533 35360 ft 506 kts 53°
2026-04-22 01:47 32.80766 -72.86327 35359 ft 506 kts 54°
2026-04-22 01:47 32.84306 -72.79152 35355 ft 505 kts 54°
2026-04-22 01:48 32.87858 -72.71938 35352 ft 505 kts 54°
2026-04-22 01:48 32.91405 -72.64720 35356 ft 505 kts 54°
2026-04-22 01:49 32.94947 -72.57500 35356 ft 505 kts 54°
2026-04-22 01:49 32.98484 -72.50272 35355 ft 504 kts 54°
2026-04-22 01:50 33.02011 -72.43053 35356 ft 504 kts 54°
2026-04-22 01:50 33.05536 -72.35824 35357 ft 504 kts 54°
2026-04-22 01:51 33.09052 -72.28597 35356 ft 503 kts 54°
2026-04-22 01:51 33.12560 -72.21372 35355 ft 503 kts 54°
2026-04-22 01:52 33.16064 -72.14142 35358 ft 503 kts 54°
2026-04-22 01:52 33.19560 -72.06914 35350 ft 502 kts 55°
2026-04-22 01:53 33.23029 -71.99728 35349 ft 502 kts 55°
2026-04-22 01:53 33.26512 -71.92499 35346 ft 502 kts 55°
2026-04-22 01:54 33.29987 -71.85271 35345 ft 502 kts 55°
2026-04-22 01:54 33.33462 -71.78029 35348 ft 501 kts 55°
2026-04-22 01:55 33.36928 -71.70791 35345 ft 501 kts 55°
2026-04-22 01:55 33.40389 -71.63550 35345 ft 501 kts 55°
2026-04-22 01:56 33.43843 -71.56307 35345 ft 501 kts 55°
2026-04-22 01:56 33.47294 -71.49057 35345 ft 501 kts 55°
2026-04-22 01:57 33.50738 -71.41809 35346 ft 500 kts 55°
2026-04-22 01:57 33.54151 -71.34608 35345 ft 500 kts 55°
2026-04-22 01:58 33.57602 -71.27312 35345 ft 500 kts 55°
2026-04-22 01:58 33.61002 -71.20111 35345 ft 499 kts 55°
2026-04-22 01:59 33.64419 -71.12861 35346 ft 499 kts 55°
2026-04-22 01:59 33.68004 -71.05769 35345 ft 493 kts 47°
2026-04-22 02:00 33.72766 -71.00041 35344 ft 481 kts 34°
2026-04-22 02:00 33.78042 -70.95100 35343 ft 480 kts 32°
2026-04-22 02:01 33.83384 -70.90280 35342 ft 480 kts 32°
2026-04-22 02:01 33.88716 -70.85449 35345 ft 480 kts 32°
2026-04-22 02:02 33.94036 -70.80589 35339 ft 479 kts 32°
2026-04-22 02:02 33.99339 -70.75722 35338 ft 479 kts 32°
2026-04-22 02:03 34.04637 -70.70849 35341 ft 479 kts 32°
2026-04-22 02:03 34.09934 -70.65972 35343 ft 479 kts 32°
2026-04-22 02:04 34.17868 -70.58653 35340 ft 479 kts 32°
2026-04-22 02:05 34.23119 -70.53799 35333 ft 479 kts 32°
2026-04-22 02:05 34.28408 -70.48903 35339 ft 479 kts 32°
2026-04-22 02:06 34.33695 -70.44001 35340 ft 479 kts 32°
2026-04-22 02:06 34.38981 -70.39090 35333 ft 479 kts 32°
2026-04-22 02:07 34.44263 -70.34176 35339 ft 479 kts 32°
2026-04-22 02:07 34.49547 -70.29252 35334 ft 479 kts 32°
2026-04-22 02:08 34.54832 -70.24319 35330 ft 479 kts 32°
2026-04-22 02:08 34.60114 -70.19381 35332 ft 479 kts 32°
2026-04-22 02:09 34.65369 -70.14459 35332 ft 479 kts 32°
2026-04-22 02:09 34.70651 -70.09504 35332 ft 480 kts 32°
2026-04-22 02:10 34.75932 -70.04542 35333 ft 480 kts 32°
2026-04-22 02:10 34.81212 -69.99573 35328 ft 480 kts 32°
2026-04-22 02:11 34.86489 -69.94598 35329 ft 480 kts 32°
2026-04-22 02:11 34.91766 -69.89615 35325 ft 480 kts 33°
2026-04-22 02:12 34.97038 -69.84628 35323 ft 480 kts 33°
2026-04-22 02:12 35.02312 -69.79631 35327 ft 480 kts 33°
2026-04-22 02:13 35.07547 -69.74663 35324 ft 480 kts 33°
2026-04-22 02:13 35.12818 -69.69652 35324 ft 480 kts 33°
2026-04-22 02:14 35.18083 -69.64639 35321 ft 480 kts 33°
2026-04-22 02:14 35.23353 -69.59612 35323 ft 480 kts 33°
2026-04-22 02:15 35.28617 -69.54582 35320 ft 480 kts 33°
2026-04-22 02:15 35.33879 -69.49546 35319 ft 480 kts 33°
2026-04-22 02:16 35.39140 -69.44502 35319 ft 480 kts 33°
2026-04-22 02:16 35.44406 -69.39444 35320 ft 480 kts 33°
2026-04-22 02:17 35.49665 -69.34385 35319 ft 480 kts 33°
2026-04-22 02:17 35.54034 -69.30175 35318 ft 480 kts 33°
2026-04-22 02:18 35.59292 -69.25101 35319 ft 480 kts 33°
2026-04-22 02:18 35.64544 -69.20024 35311 ft 480 kts 33°
2026-04-22 02:19 35.69771 -69.14962 35311 ft 480 kts 33°
2026-04-22 02:19 35.75018 -69.09873 35313 ft 480 kts 33°
2026-04-22 02:20 35.80267 -69.04772 35310 ft 480 kts 33°
2026-04-22 02:20 35.85510 -68.99669 35311 ft 480 kts 33°
2026-04-22 02:21 35.90756 -68.94554 35311 ft 480 kts 33°
2026-04-22 02:21 35.96000 -68.89431 35309 ft 480 kts 33°
2026-04-22 02:22 36.01244 -68.84300 35304 ft 481 kts 33°
2026-04-22 02:22 36.06484 -68.79164 35309 ft 480 kts 33°
2026-04-22 02:23 36.11715 -68.74027 35308 ft 480 kts 33°
2026-04-22 02:23 36.16955 -68.68873 35301 ft 480 kts 33°
2026-04-22 02:24 36.22147 -68.63758 35297 ft 480 kts 33°
2026-04-22 02:24 36.27375 -68.58597 35296 ft 480 kts 33°
2026-04-22 02:25 36.32599 -68.53431 35298 ft 480 kts 33°
2026-04-22 02:25 36.37817 -68.48262 35303 ft 480 kts 33°
2026-04-22 02:26 36.43031 -68.43089 35300 ft 480 kts 33°
2026-04-22 02:26 36.48240 -68.37910 35296 ft 480 kts 33°
2026-04-22 02:27 36.53449 -68.32723 35294 ft 480 kts 33°
2026-04-22 02:27 36.58785 -68.27791 35298 ft 475 kts 27°
2026-04-22 02:28 36.64371 -68.23419 35295 ft 473 kts 26°
2026-04-22 02:28 36.69991 -68.19134 35295 ft 473 kts 26°
2026-04-22 02:29 36.75607 -68.14857 35293 ft 473 kts 26°
2026-04-22 02:29 36.81211 -68.10569 35293 ft 473 kts 26°
2026-04-22 02:30 36.86773 -68.06298 35293 ft 472 kts 26°
2026-04-22 02:30 36.92368 -68.01993 35289 ft 472 kts 26°
2026-04-22 02:31 36.97962 -67.97680 35289 ft 472 kts 26°
2026-04-22 02:31 37.03549 -67.93366 35285 ft 472 kts 26°
2026-04-22 02:32 37.09132 -67.89048 35289 ft 472 kts 26°
2026-04-22 02:32 37.14713 -67.84723 35283 ft 471 kts 26°
2026-04-22 02:33 37.20288 -67.80396 35275 ft 471 kts 26°
2026-04-22 02:33 37.25860 -67.76064 35283 ft 471 kts 26°
2026-04-22 02:34 37.31429 -67.71726 35286 ft 471 kts 26°
2026-04-22 02:34 37.36997 -67.67382 35283 ft 471 kts 26°
2026-04-22 02:35 37.42557 -67.63036 35283 ft 470 kts 26°
2026-04-22 02:35 37.48079 -67.58711 35281 ft 470 kts 26°
2026-04-22 02:36 37.53632 -67.54355 35281 ft 470 kts 26°
2026-04-22 02:36 37.59177 -67.49998 35284 ft 470 kts 26°
2026-04-22 02:37 37.64723 -67.45632 35283 ft 470 kts 26°
2026-04-22 02:37 37.70267 -67.41260 35282 ft 469 kts 26°
2026-04-22 02:38 37.75803 -67.36886 35284 ft 469 kts 26°
2026-04-22 02:38 37.81336 -67.32507 35284 ft 469 kts 26°
2026-04-22 02:39 37.86873 -67.28117 35284 ft 469 kts 26°
2026-04-22 02:39 37.92404 -67.23723 35286 ft 469 kts 26°
2026-04-22 02:40 37.97929 -67.19326 35284 ft 469 kts 26°
2026-04-22 02:40 38.03428 -67.14943 35280 ft 469 kts 26°
2026-04-22 02:41 38.08987 -67.10504 35284 ft 469 kts 26°
2026-04-22 02:41 38.14468 -67.06119 35286 ft 469 kts 26°
2026-04-22 02:42 38.19995 -67.01689 35286 ft 469 kts 26°
2026-04-22 02:42 38.25519 -66.97253 35284 ft 469 kts 26°
2026-04-22 02:43 38.31039 -66.92813 35282 ft 469 kts 26°
2026-04-22 02:43 38.36555 -66.88368 35287 ft 469 kts 26°
2026-04-22 02:44 38.42078 -66.83909 35280 ft 470 kts 26°
2026-04-22 02:44 38.47569 -66.79468 35284 ft 470 kts 26°
2026-04-22 02:45 38.53092 -66.74991 35285 ft 470 kts 26°
2026-04-22 02:45 38.58609 -66.70513 35284 ft 470 kts 26°
2026-04-22 02:46 38.63936 -66.65592 35287 ft 479 kts 37°
2026-04-22 02:46 38.68693 -66.59553 35284 ft 483 kts 39°
2026-04-22 02:47 38.73341 -66.53313 35285 ft 484 kts 40°
2026-04-22 02:47 38.77974 -66.47040 35284 ft 484 kts 40°
2026-04-22 02:48 38.82591 -66.40809 35283 ft 485 kts 40°
2026-04-22 02:48 38.87246 -66.34536 35285 ft 485 kts 40°
2026-04-22 02:49 38.91904 -66.28251 35289 ft 486 kts 40°
2026-04-22 02:49 38.96565 -66.21948 35289 ft 487 kts 40°
2026-04-22 02:50 39.01225 -66.15631 35287 ft 487 kts 40°
2026-04-22 02:50 39.05889 -66.09296 35272 ft 488 kts 40°
2026-04-22 02:51 39.10553 -66.02947 35285 ft 488 kts 40°
2026-04-22 02:51 39.15225 -65.96574 35282 ft 489 kts 40°
2026-04-22 02:52 39.19869 -65.90226 35277 ft 490 kts 40°
2026-04-22 02:52 39.24540 -65.83830 35280 ft 491 kts 41°
2026-04-22 02:53 39.29222 -65.77407 35280 ft 491 kts 41°
2026-04-22 02:53 39.33903 -65.70971 35278 ft 492 kts 41°
2026-04-22 02:54 39.38596 -65.64504 35279 ft 493 kts 41°
2026-04-22 02:54 39.43289 -65.58024 35275 ft 494 kts 41°
2026-04-22 02:55 39.47984 -65.51525 35278 ft 495 kts 41°
2026-04-22 02:55 39.52662 -65.45037 35278 ft 496 kts 41°
2026-04-22 02:56 39.57373 -65.38488 35277 ft 497 kts 41°
2026-04-22 02:56 39.62090 -65.31917 35279 ft 498 kts 42°
2026-04-22 02:57 39.66807 -65.25333 35274 ft 499 kts 42°
2026-04-22 02:57 39.71531 -65.18725 35279 ft 500 kts 42°
2026-04-22 02:58 39.76279 -65.12071 35524 ft 503 kts 42°
2026-04-22 02:58 39.78654 -65.08736 35773 ft 503 kts 43°
2026-04-22 02:58 39.81044 -65.05378 35974 ft 505 kts 43°
2026-04-22 02:58 39.83429 -65.02021 36171 ft 506 kts 43°
2026-04-22 02:59 39.85820 -64.98654 36368 ft 507 kts 43°
2026-04-22 02:59 39.88210 -64.95282 36574 ft 508 kts 43°
2026-04-22 02:59 39.90615 -64.91887 36775 ft 509 kts 43°
2026-04-22 02:59 39.93015 -64.88494 36968 ft 510 kts 44°
2026-04-22 03:00 39.95419 -64.85091 37158 ft 511 kts 44°
2026-04-22 03:00 39.97799 -64.81720 37263 ft 512 kts 44°
2026-04-22 03:00 40.00212 -64.78297 37288 ft 512 kts 44°
2026-04-22 03:01 40.05032 -64.71448 37270 ft 513 kts 44°
2026-04-22 03:01 40.09856 -64.64579 37268 ft 513 kts 44°
2026-04-22 03:02 40.14682 -64.57691 37266 ft 514 kts 44°
2026-04-22 03:02 40.19508 -64.50790 37271 ft 514 kts 44°
2026-04-22 03:03 40.24334 -64.43872 37270 ft 515 kts 44°
2026-04-22 03:03 40.29132 -64.36978 37268 ft 516 kts 45°
2026-04-22 03:04 40.33966 -64.30015 37265 ft 516 kts 45°
2026-04-22 03:04 40.38798 -64.23041 37264 ft 517 kts 45°
2026-04-22 03:05 40.43629 -64.16052 37261 ft 517 kts 45°
2026-04-22 03:05 40.48460 -64.09046 37260 ft 517 kts 45°
2026-04-22 03:06 40.53291 -64.02024 37262 ft 518 kts 45°
2026-04-22 03:06 40.57306 -63.96177 37257 ft 518 kts 45°
2026-04-22 03:07 40.62920 -63.87980 37255 ft 518 kts 45°
2026-04-22 03:07 40.67743 -63.80921 37253 ft 519 kts 46°
2026-04-22 03:08 40.71785 -63.74991 37255 ft 519 kts 46°
2026-04-22 03:08 40.76608 -63.67902 37253 ft 519 kts 46°
2026-04-22 03:09 40.81398 -63.60844 37251 ft 520 kts 46°
2026-04-22 03:09 40.86216 -63.53729 37256 ft 520 kts 46°
2026-04-22 03:10 40.91043 -63.46583 37251 ft 520 kts 46°
2026-04-22 03:10 40.95859 -63.39437 37253 ft 520 kts 46°
2026-04-22 03:11 41.00675 -63.32273 37253 ft 521 kts 46°
2026-04-22 03:11 41.05490 -63.25093 37255 ft 521 kts 47°
2026-04-22 03:12 41.10305 -63.17897 37252 ft 521 kts 47°
2026-04-22 03:12 41.17521 -63.07080 37256 ft 522 kts 47°
2026-04-22 03:13 41.22326 -62.99854 37257 ft 522 kts 47°
2026-04-22 03:13 41.27132 -62.92610 37249 ft 523 kts 47°
2026-04-22 03:14 41.31911 -62.85391 37266 ft 523 kts 47°
2026-04-22 03:14 41.36716 -62.78114 37251 ft 523 kts 47°
2026-04-22 03:15 41.41520 -62.70821 37257 ft 524 kts 47°
2026-04-22 03:15 41.46319 -62.63516 37255 ft 524 kts 48°
2026-04-22 03:16 41.51124 -62.56186 37258 ft 525 kts 48°
2026-04-22 03:16 41.55922 -62.48848 37262 ft 525 kts 48°
2026-04-22 03:17 41.60727 -62.41481 37258 ft 525 kts 48°
2026-04-22 03:17 41.65525 -62.34107 37259 ft 526 kts 49°
2026-04-22 03:18 41.70324 -62.26714 37262 ft 526 kts 49°
2026-04-22 03:18 41.75119 -62.19307 37261 ft 527 kts 49°
2026-04-22 03:19 41.79914 -62.11883 37261 ft 527 kts 49°
2026-04-22 03:19 41.84709 -62.04440 37260 ft 527 kts 49°
2026-04-22 03:20 41.89498 -61.96988 37263 ft 528 kts 49°
2026-04-22 03:20 41.94291 -61.89510 37263 ft 528 kts 50°
2026-04-22 03:21 41.99048 -61.82071 37262 ft 528 kts 50°
2026-04-22 03:21 42.03837 -61.74562 37262 ft 529 kts 50°
2026-04-22 03:22 42.08621 -61.67042 37264 ft 529 kts 50°
2026-04-22 03:22 42.13405 -61.59503 37260 ft 529 kts 50°
2026-04-22 03:23 42.18186 -61.51949 37260 ft 530 kts 51°
2026-04-22 03:23 42.22972 -61.44369 37260 ft 530 kts 51°
2026-04-22 03:24 42.27757 -61.36771 37260 ft 531 kts 51°
2026-04-22 03:24 42.32540 -61.29156 37259 ft 532 kts 51°
2026-04-22 03:25 42.37321 -61.21525 37260 ft 532 kts 51°
2026-04-22 03:25 42.41909 -61.13673 37260 ft 531 kts 57°
2026-04-22 03:26 42.46084 -61.05421 37260 ft 531 kts 58°
2026-04-22 03:26 42.50224 -60.97195 37254 ft 532 kts 58°
2026-04-22 03:27 42.54463 -60.88954 37251 ft 533 kts 57°
2026-04-22 03:27 42.58737 -60.80720 37252 ft 533 kts 57°
2026-04-22 03:28 42.63006 -60.72484 37254 ft 533 kts 58°
2026-04-22 03:28 42.67272 -60.64226 37253 ft 534 kts 58°
2026-04-22 03:29 42.71529 -60.55955 37254 ft 534 kts 58°
2026-04-22 03:29 42.75750 -60.47730 37249 ft 534 kts 58°
2026-04-22 03:30 42.79993 -60.39440 37248 ft 534 kts 58°
2026-04-22 03:30 42.84238 -60.31123 37249 ft 534 kts 58°
2026-04-22 03:31 42.88475 -60.22799 37245 ft 534 kts 59°
2026-04-22 03:31 42.92704 -60.14467 37245 ft 534 kts 59°
2026-04-22 03:32 42.96933 -60.06111 37247 ft 535 kts 59°
2026-04-22 03:32 43.01604 -59.98153 37251 ft 540 kts 48°
2026-04-22 03:33 43.07042 -59.91039 37242 ft 542 kts 46°
2026-04-22 03:33 43.12602 -59.84054 37241 ft 542 kts 46°
2026-04-22 03:34 43.18164 -59.77066 37236 ft 542 kts 46°
2026-04-22 03:34 43.23670 -59.70094 37234 ft 542 kts 46°
2026-04-22 03:35 43.29195 -59.63059 37233 ft 542 kts 46°
2026-04-22 03:35 43.34713 -59.56011 37234 ft 542 kts 46°
2026-04-22 03:36 43.40227 -59.48951 37245 ft 542 kts 47°
2026-04-22 03:36 43.45739 -59.41876 37223 ft 542 kts 47°
2026-04-22 03:37 43.51243 -59.34793 37232 ft 542 kts 47°
2026-04-22 03:37 43.56756 -59.27681 37232 ft 542 kts 47°
2026-04-22 03:38 43.62268 -59.20550 37230 ft 543 kts 47°
2026-04-22 03:38 43.67775 -59.13407 37226 ft 543 kts 47°
2026-04-22 03:39 43.73281 -59.06247 37228 ft 544 kts 47°
2026-04-22 03:39 43.78757 -58.99108 37223 ft 544 kts 47°
2026-04-22 03:40 43.84305 -58.91855 37219 ft 545 kts 47°
2026-04-22 03:40 43.89775 -58.84685 37222 ft 545 kts 48°
2026-04-22 03:41 43.95290 -58.77436 37225 ft 546 kts 48°
2026-04-22 03:41 44.00800 -58.70175 37213 ft 546 kts 48°
2026-04-22 03:42 44.06313 -58.62890 37213 ft 547 kts 48°
2026-04-22 03:42 44.11825 -58.55587 37213 ft 547 kts 48°
2026-04-22 03:43 44.17338 -58.48264 37210 ft 548 kts 49°
2026-04-22 03:43 44.22851 -58.40919 37206 ft 548 kts 49°
2026-04-22 03:44 44.28321 -58.33613 37203 ft 548 kts 49°
2026-04-22 03:44 44.33859 -58.26194 37197 ft 548 kts 49°
2026-04-22 03:45 44.39321 -58.18858 37197 ft 548 kts 49°
2026-04-22 03:45 44.44824 -58.11445 37193 ft 549 kts 49°
2026-04-22 03:46 44.50321 -58.04019 37190 ft 549 kts 50°
2026-04-22 03:46 44.55817 -57.96574 37185 ft 550 kts 50°
2026-04-22 03:47 44.61314 -57.89106 37179 ft 550 kts 50°
2026-04-22 03:47 44.66812 -57.81618 37177 ft 551 kts 50°
2026-04-22 03:48 44.72314 -57.74107 37172 ft 552 kts 50°
2026-04-22 03:48 44.77825 -57.66563 37171 ft 552 kts 50°
2026-04-22 03:49 44.83333 -57.59004 37173 ft 553 kts 51°
2026-04-22 03:49 44.88810 -57.51459 37169 ft 554 kts 51°
2026-04-22 03:50 44.94321 -57.43846 37158 ft 556 kts 51°
2026-04-22 03:50 44.99850 -57.36186 37156 ft 557 kts 51°
2026-04-22 03:51 45.05380 -57.28503 37153 ft 558 kts 51°
2026-04-22 03:51 45.10921 -57.20783 37151 ft 560 kts 51°
2026-04-22 03:52 45.16477 -57.13021 37149 ft 561 kts 51°
2026-04-22 03:52 45.22031 -57.05240 37143 ft 561 kts 50°
2026-04-22 03:53 45.26648 -56.98753 37142 ft 561 kts 50°
2026-04-22 03:53 45.33095 -56.89670 37142 ft 561 kts 50°
2026-04-22 03:54 45.38636 -56.81840 37137 ft 561 kts 50°
2026-04-22 03:54 45.43271 -56.75271 37136 ft 560 kts 50°
2026-04-22 03:55 45.48750 -56.67486 37133 ft 560 kts 49°
2026-04-22 03:55 45.54250 -56.59647 37133 ft 559 kts 49°
2026-04-22 03:56 45.59734 -56.51810 37125 ft 558 kts 49°
2026-04-22 03:56 45.65206 -56.43965 37126 ft 557 kts 49°
2026-04-22 03:57 45.70661 -56.36122 37128 ft 556 kts 49°
2026-04-22 03:57 45.76105 -56.28271 37132 ft 555 kts 49°
2026-04-22 03:58 45.81536 -56.20416 37122 ft 554 kts 49°
2026-04-22 03:58 45.86959 -56.12549 37122 ft 554 kts 49°
2026-04-22 03:59 45.92371 -56.04676 37120 ft 553 kts 50°
2026-04-22 03:59 45.97768 -55.96801 37120 ft 552 kts 50°
2026-04-22 04:00 46.03109 -55.88984 37116 ft 552 kts 50°
2026-04-22 04:00 46.08484 -55.81095 37114 ft 551 kts 50°
2026-04-22 04:01 46.13845 -55.73204 37113 ft 551 kts 50°
2026-04-22 04:01 46.19197 -55.65301 37110 ft 550 kts 50°
2026-04-22 04:02 46.24542 -55.57387 37113 ft 550 kts 50°
2026-04-22 04:02 46.29880 -55.49458 37110 ft 550 kts 50°
2026-04-22 04:03 46.35211 -55.41515 36852 ft 550 kts 49°
2026-04-22 04:03 46.37880 -55.37527 37124 ft 552 kts 50°
2026-04-22 04:03 46.40547 -55.33539 37120 ft 551 kts 50°
2026-04-22 04:04 46.45877 -55.25556 37125 ft 550 kts 50°
2026-04-22 04:04 46.51190 -55.17571 37122 ft 549 kts 50°
2026-04-22 04:05 46.56483 -55.09593 37125 ft 548 kts 50°
2026-04-22 04:05 46.61738 -55.01646 37116 ft 547 kts 50°
2026-04-22 04:06 46.67000 -54.93666 37115 ft 546 kts 50°
2026-04-22 04:06 46.72246 -54.85685 37120 ft 545 kts 50°
2026-04-22 04:07 46.77475 -54.77705 37112 ft 544 kts 50°
2026-04-22 04:07 46.82692 -54.69721 37113 ft 543 kts 50°
2026-04-22 04:08 46.87900 -54.61727 37111 ft 543 kts 50°
2026-04-22 04:08 46.93105 -54.53715 37110 ft 543 kts 50°
2026-04-22 04:09 46.98301 -54.45691 37107 ft 543 kts 50°
2026-04-22 04:09 47.03495 -54.37644 37108 ft 544 kts 50°
2026-04-22 04:10 47.08688 -54.29577 37119 ft 544 kts 50°
2026-04-22 04:10 47.13883 -54.21481 37109 ft 544 kts 50°
2026-04-22 04:11 47.19070 -54.13373 37099 ft 544 kts 50°
2026-04-22 04:11 47.24253 -54.05248 37096 ft 544 kts 50°
2026-04-22 04:12 47.29427 -53.97110 37101 ft 544 kts 50°
2026-04-22 04:12 47.34557 -53.89018 37105 ft 544 kts 50°
2026-04-22 04:13 47.39715 -53.80857 37102 ft 543 kts 50°
2026-04-22 04:13 47.44856 -53.72696 37105 ft 542 kts 50°
2026-04-22 04:14 47.49986 -53.64528 37103 ft 541 kts 50°
2026-04-22 04:14 47.55101 -53.56360 37106 ft 540 kts 50°
2026-04-22 04:15 47.60201 -53.48191 37105 ft 539 kts 50°
2026-04-22 04:15 47.65283 -53.40025 37096 ft 539 kts 50°
2026-04-22 04:16 47.72883 -53.27763 37099 ft 537 kts 50°
2026-04-22 04:17 47.77933 -53.19585 37096 ft 536 kts 50°
2026-04-22 04:17 47.82932 -53.11463 37092 ft 535 kts 50°
2026-04-22 04:18 47.87955 -53.03281 37092 ft 534 kts 50°
2026-04-22 04:18 47.92970 -52.95083 37095 ft 534 kts 50°
2026-04-22 04:19 47.97961 -52.86899 37101 ft 533 kts 50°
2026-04-22 04:19 48.02942 -52.78708 37094 ft 532 kts 50°
2026-04-22 04:20 48.07909 -52.70513 37089 ft 532 kts 50°
2026-04-22 04:20 48.12864 -52.62313 37094 ft 531 kts 50°
2026-04-22 04:21 48.17785 -52.54143 37094 ft 531 kts 50°
2026-04-22 04:21 48.22719 -52.45927 37094 ft 530 kts 50°
2026-04-22 04:22 48.27644 -52.37700 37098 ft 530 kts 50°
2026-04-22 04:22 48.32567 -52.29451 37093 ft 529 kts 50°
2026-04-22 04:23 48.37474 -52.21203 37095 ft 529 kts 50°
2026-04-22 04:23 48.42373 -52.12943 37093 ft 529 kts 50°
2026-04-22 04:24 48.47253 -52.04670 37084 ft 528 kts 51°
2026-04-22 04:24 48.51127 -51.95418 37090 ft 519 kts 70°
2026-04-22 04:25 48.53904 -51.85385 37081 ft 518 kts 72°
2026-04-22 04:25 48.56495 -51.75253 37080 ft 517 kts 72°
2026-04-22 04:26 48.59055 -51.65167 37072 ft 517 kts 72°
2026-04-22 04:26 48.61642 -51.55034 37070 ft 517 kts 72°
2026-04-22 04:27 48.64230 -51.44904 37072 ft 517 kts 72°
2026-04-22 04:27 48.66810 -51.34770 37067 ft 516 kts 72°
2026-04-22 04:28 48.69379 -51.24631 37074 ft 515 kts 72°
2026-04-22 04:28 48.71938 -51.14484 37066 ft 515 kts 72°
2026-04-22 04:29 48.74483 -51.04347 37060 ft 515 kts 72°
2026-04-22 04:29 48.77015 -50.94213 37062 ft 514 kts 71°
2026-04-22 04:30 48.79538 -50.84067 37054 ft 514 kts 71°
2026-04-22 04:30 48.82049 -50.73929 37054 ft 513 kts 71°
2026-04-22 04:31 48.84534 -50.63845 37058 ft 513 kts 71°
2026-04-22 04:31 48.87024 -50.53700 37052 ft 512 kts 71°
2026-04-22 04:32 48.89505 -50.43541 37051 ft 512 kts 71°
2026-04-22 04:32 48.91974 -50.33386 37050 ft 512 kts 71°
2026-04-22 04:33 48.94432 -50.23232 37049 ft 511 kts 71°
2026-04-22 04:33 48.96879 -50.13075 37050 ft 511 kts 71°
2026-04-22 04:34 48.99310 -50.02920 37070 ft 511 kts 72°
2026-04-22 04:34 49.01115 -49.92473 37046 ft 510 kts 79°
2026-04-22 04:35 49.02664 -49.81918 37050 ft 510 kts 80°
2026-04-22 04:35 49.04164 -49.71355 37053 ft 510 kts 80°
2026-04-22 04:36 49.05658 -49.60800 37052 ft 509 kts 80°
2026-04-22 04:36 49.07151 -49.50246 37057 ft 509 kts 80°
2026-04-22 04:37 49.08637 -49.39687 37054 ft 508 kts 79°
2026-04-22 04:37 49.10101 -49.29211 37057 ft 507 kts 79°
2026-04-22 04:38 49.11560 -49.18692 37063 ft 506 kts 79°
2026-04-22 04:38 49.13008 -49.08178 37067 ft 505 kts 79°
2026-04-22 04:39 49.14443 -48.97681 37067 ft 504 kts 79°
2026-04-22 04:39 49.15865 -48.87205 37070 ft 503 kts 79°
2026-04-22 04:40 49.17276 -48.76735 37072 ft 503 kts 79°
2026-04-22 04:40 49.18676 -48.66274 37078 ft 502 kts 79°
2026-04-22 04:41 49.20065 -48.55810 37080 ft 502 kts 79°
2026-04-22 04:41 49.21446 -48.45336 37083 ft 502 kts 79°
2026-04-22 04:42 49.22808 -48.34926 37086 ft 502 kts 79°
2026-04-22 04:42 49.24170 -48.24440 37088 ft 503 kts 79°
2026-04-22 04:43 49.25525 -48.13935 37093 ft 503 kts 79°
2026-04-22 04:43 49.26646 -48.05180 37098 ft 504 kts 79°
2026-04-22 04:44 49.27985 -47.94644 37101 ft 504 kts 78°
2026-04-22 04:44 49.29314 -47.84100 37105 ft 504 kts 78°
2026-04-22 04:45 49.30637 -47.73533 37100 ft 505 kts 78°
2026-04-22 04:45 49.31950 -47.62964 37109 ft 505 kts 78°
2026-04-22 04:46 49.33252 -47.52395 37115 ft 504 kts 78°
2026-04-22 04:46 49.34544 -47.41829 37116 ft 504 kts 78°
2026-04-22 04:47 49.35825 -47.31262 37123 ft 504 kts 78°
2026-04-22 04:47 49.37095 -47.20690 37130 ft 504 kts 78°
2026-04-22 04:48 49.38355 -47.10124 37133 ft 503 kts 78°
2026-04-22 04:48 49.39606 -46.99551 37138 ft 503 kts 78°
2026-04-22 04:49 49.40847 -46.88994 37143 ft 503 kts 78°
2026-04-22 04:49 49.42069 -46.78489 37148 ft 502 kts 78°
2026-04-22 04:50 49.43288 -46.67934 37154 ft 501 kts 79°
2026-04-22 04:50 49.44494 -46.57378 37158 ft 501 kts 79°
2026-04-22 04:51 49.45692 -46.46834 37162 ft 500 kts 78°
2026-04-22 04:51 49.46876 -46.36320 37169 ft 498 kts 79°
2026-04-22 04:52 49.48044 -46.25832 37171 ft 497 kts 78°
2026-04-22 04:52 49.49201 -46.15357 37176 ft 496 kts 78°
2026-04-22 04:53 49.50349 -46.04901 37177 ft 495 kts 78°
2026-04-22 04:53 49.51486 -45.94459 37194 ft 494 kts 78°
2026-04-22 04:54 49.52604 -45.84088 37190 ft 494 kts 78°
2026-04-22 04:54 49.53719 -45.73646 37194 ft 494 kts 79°
2026-04-22 04:55 49.54823 -45.63204 37193 ft 494 kts 79°
2026-04-22 04:55 49.55919 -45.52765 37195 ft 494 kts 79°
2026-04-22 04:56 49.57004 -45.42328 37201 ft 494 kts 79°
2026-04-22 04:56 49.58081 -45.31878 37206 ft 493 kts 79°
2026-04-22 04:57 49.59147 -45.21432 37210 ft 493 kts 79°
2026-04-22 04:57 49.60197 -45.11047 37214 ft 493 kts 79°
2026-04-22 04:58 49.61244 -45.00596 37216 ft 493 kts 79°
2026-04-22 04:58 49.62282 -44.90141 37221 ft 493 kts 79°
2026-04-22 04:59 49.63309 -44.79691 37223 ft 493 kts 79°
2026-04-22 04:59 49.64329 -44.69221 37224 ft 493 kts 79°
2026-04-22 05:00 49.65336 -44.58771 37228 ft 492 kts 78°
2026-04-22 05:00 49.66335 -44.48311 37232 ft 492 kts 78°
2026-04-22 05:01 49.67324 -44.37855 37235 ft 492 kts 78°
2026-04-22 05:01 49.68304 -44.27380 37237 ft 492 kts 78°
2026-04-22 05:02 49.69269 -44.16976 37229 ft 493 kts 78°
2026-04-22 05:02 49.70229 -44.06503 37248 ft 492 kts 78°
2026-04-22 05:03 49.71181 -43.96020 37242 ft 492 kts 78°
2026-04-22 05:03 49.72124 -43.85530 37257 ft 492 kts 78°
2026-04-22 05:04 49.73056 -43.75051 37242 ft 492 kts 78°
2026-04-22 05:04 49.73979 -43.64558 37245 ft 492 kts 78°
2026-04-22 05:05 49.74892 -43.54073 37253 ft 491 kts 78°
2026-04-22 05:05 49.75793 -43.43610 37246 ft 491 kts 78°
2026-04-22 05:06 49.76684 -43.33146 37255 ft 490 kts 78°
2026-04-22 05:06 49.77560 -43.22751 37254 ft 490 kts 78°
2026-04-22 05:07 49.78431 -43.12304 37258 ft 489 kts 78°
2026-04-22 05:07 49.79291 -43.01866 37254 ft 489 kts 78°
2026-04-22 05:08 49.80142 -42.91422 37252 ft 488 kts 78°
2026-04-22 05:08 49.80981 -42.80998 37257 ft 487 kts 78°
2026-04-22 05:09 49.81811 -42.70585 37260 ft 487 kts 78°
2026-04-22 05:09 49.82624 -42.60251 37257 ft 486 kts 78°
2026-04-22 05:10 49.83432 -42.49864 37260 ft 485 kts 78°
2026-04-22 05:10 49.84229 -42.39489 37262 ft 485 kts 78°
2026-04-22 05:11 49.85017 -42.29124 37258 ft 484 kts 78°
2026-04-22 05:11 49.85793 -42.18773 37265 ft 483 kts 77°
2026-04-22 05:12 49.86559 -42.08442 37261 ft 483 kts 77°
2026-04-22 05:12 49.87316 -41.98106 37270 ft 482 kts 77°
2026-04-22 05:13 49.88063 -41.87779 37270 ft 482 kts 77°
2026-04-22 05:13 49.88799 -41.77465 37266 ft 481 kts 77°
2026-04-22 05:14 49.89522 -41.67214 37264 ft 481 kts 77°
2026-04-22 05:14 49.90240 -41.56905 37265 ft 481 kts 77°
2026-04-22 05:15 49.90948 -41.46598 37268 ft 480 kts 77°
2026-04-22 05:15 49.91646 -41.36287 37270 ft 480 kts 77°
2026-04-22 05:16 49.92335 -41.25985 37276 ft 480 kts 77°
2026-04-22 05:16 49.93015 -41.15681 37273 ft 480 kts 77°
2026-04-22 05:17 49.93685 -41.05385 37273 ft 479 kts 77°
2026-04-22 05:17 49.94345 -40.95096 37274 ft 479 kts 78°
2026-04-22 05:18 49.95318 -40.79656 37278 ft 478 kts 78°
2026-04-22 05:18 49.95954 -40.69381 37275 ft 478 kts 78°
2026-04-22 05:19 49.96578 -40.59168 37274 ft 478 kts 78°
2026-04-22 05:19 49.97196 -40.48887 37281 ft 478 kts 78°
2026-04-22 05:20 49.97805 -40.38606 37288 ft 477 kts 79°
2026-04-22 05:20 49.98404 -40.28339 37276 ft 477 kts 79°
2026-04-22 05:21 49.98994 -40.18068 37272 ft 477 kts 79°
2026-04-22 05:21 49.99575 -40.07796 37279 ft 477 kts 79°
2026-04-22 05:22 50.00708 -39.97763 37273 ft 467 kts 67°
2026-04-22 05:22 50.02907 -39.88297 37271 ft 464 kts 64°
2026-04-22 05:23 50.05264 -39.78960 37271 ft 463 kts 63°
2026-04-22 05:23 50.07615 -39.69689 37275 ft 463 kts 64°
2026-04-22 05:24 50.09955 -39.60342 37276 ft 463 kts 64°
2026-04-22 05:24 50.12275 -39.50987 37277 ft 463 kts 64°
2026-04-22 05:25 50.14586 -39.41622 37272 ft 463 kts 64°
2026-04-22 05:25 50.16888 -39.32253 37272 ft 463 kts 64°
2026-04-22 05:26 50.19184 -39.22874 37276 ft 462 kts 64°
2026-04-22 05:26 50.21470 -39.13499 37277 ft 462 kts 64°
2026-04-22 05:27 50.23747 -39.04117 37272 ft 462 kts 64°
2026-04-22 05:27 50.26005 -38.94776 37272 ft 462 kts 64°
2026-04-22 05:28 50.28266 -38.85381 37265 ft 461 kts 64°
2026-04-22 05:28 50.30518 -38.75984 37268 ft 461 kts 64°
2026-04-22 05:29 50.32760 -38.66585 37272 ft 461 kts 64°
2026-04-22 05:29 50.34992 -38.57190 37271 ft 460 kts 65°
2026-04-22 05:30 50.37218 -38.47780 37269 ft 460 kts 65°
2026-04-22 05:30 50.39417 -38.38445 37267 ft 459 kts 65°
2026-04-22 05:31 50.41621 -38.29046 37272 ft 459 kts 65°
2026-04-22 05:31 50.43814 -38.19653 37268 ft 458 kts 65°
2026-04-22 05:32 50.45998 -38.10257 37266 ft 458 kts 65°
2026-04-22 05:32 50.48171 -38.00866 37268 ft 457 kts 65°
2026-04-22 05:33 50.49968 -37.93069 37265 ft 457 kts 65°
2026-04-22 05:33 50.52122 -37.83687 37264 ft 456 kts 65°
2026-04-22 05:34 50.54263 -37.74319 37264 ft 455 kts 65°
2026-04-22 05:34 50.56395 -37.64952 37263 ft 454 kts 65°
2026-04-22 05:35 50.58514 -37.55599 37266 ft 454 kts 65°
2026-04-22 05:35 50.60623 -37.46246 37264 ft 453 kts 66°
2026-04-22 05:36 50.62707 -37.36966 37263 ft 452 kts 66°
2026-04-22 05:36 50.64794 -37.27631 37262 ft 451 kts 66°
2026-04-22 05:37 50.66869 -37.18305 37260 ft 451 kts 66°
2026-04-22 05:37 50.68935 -37.08982 37262 ft 450 kts 66°
2026-04-22 05:38 50.70989 -36.99669 37258 ft 449 kts 66°
2026-04-22 05:38 50.73035 -36.90355 37256 ft 449 kts 66°
2026-04-22 05:39 50.75072 -36.81035 37256 ft 448 kts 66°
2026-04-22 05:39 50.77099 -36.71721 37251 ft 448 kts 66°
2026-04-22 05:40 50.79117 -36.62404 37259 ft 448 kts 66°
2026-04-22 05:40 50.81124 -36.53100 37254 ft 447 kts 66°
2026-04-22 05:41 50.83123 -36.43788 37253 ft 447 kts 66°
2026-04-22 05:41 50.85116 -36.34461 37255 ft 447 kts 66°
2026-04-22 05:42 50.87084 -36.25208 37252 ft 447 kts 66°
2026-04-22 05:42 50.89058 -36.15884 37251 ft 446 kts 67°
2026-04-22 05:43 50.91026 -36.06549 37249 ft 446 kts 67°
2026-04-22 05:43 50.92985 -35.97210 37252 ft 446 kts 67°
2026-04-22 05:44 50.94935 -35.87873 37248 ft 446 kts 67°
2026-04-22 05:44 50.96880 -35.78514 37250 ft 446 kts 67°
2026-04-22 05:45 50.98817 -35.69154 37246 ft 446 kts 67°
2026-04-22 05:45 51.00744 -35.59795 37241 ft 446 kts 67°
2026-04-22 05:46 51.02654 -35.50475 37244 ft 446 kts 68°
2026-04-22 05:46 51.04567 -35.41098 37244 ft 446 kts 68°
2026-04-22 05:47 51.06474 -35.31699 37237 ft 446 kts 68°
2026-04-22 05:47 51.08373 -35.22301 37241 ft 446 kts 68°
2026-04-22 05:48 51.10260 -35.12918 37233 ft 447 kts 68°
2026-04-22 05:48 51.12150 -35.03473 37239 ft 447 kts 68°
2026-04-22 05:49 51.14026 -34.94046 37240 ft 447 kts 68°
2026-04-22 05:49 51.15900 -34.84593 37236 ft 447 kts 68°
2026-04-22 05:50 51.17742 -34.75255 37234 ft 447 kts 69°
2026-04-22 05:50 51.19620 -34.65688 37236 ft 447 kts 69°
2026-04-22 05:51 51.21468 -34.56222 37235 ft 447 kts 69°
2026-04-22 05:51 51.23312 -34.46736 37236 ft 447 kts 69°
2026-04-22 05:52 51.25134 -34.37311 37232 ft 447 kts 69°
2026-04-22 05:52 51.26960 -34.27818 37232 ft 447 kts 69°
2026-04-22 05:53 51.28779 -34.18318 37229 ft 447 kts 69°
2026-04-22 05:53 51.30589 -34.08812 37225 ft 447 kts 70°
2026-04-22 05:54 51.32397 -33.99273 37227 ft 448 kts 70°
2026-04-22 05:54 51.34193 -33.89745 37224 ft 448 kts 70°
2026-04-22 05:55 51.35982 -33.80206 37222 ft 448 kts 70°
2026-04-22 05:55 51.37764 -33.70656 37219 ft 448 kts 70°
2026-04-22 05:56 51.39541 -33.61086 37217 ft 448 kts 70°
2026-04-22 05:56 51.41312 -33.51502 37215 ft 449 kts 70°
2026-04-22 05:57 51.43074 -33.41913 37214 ft 449 kts 70°
2026-04-22 05:57 51.44830 -33.32304 37211 ft 449 kts 71°
2026-04-22 05:58 51.46568 -33.22746 37207 ft 449 kts 71°
2026-04-22 05:58 51.48311 -33.13112 37206 ft 450 kts 71°
2026-04-22 05:59 51.50047 -33.03464 37205 ft 450 kts 71°
2026-04-22 05:59 51.51778 -32.93792 37203 ft 451 kts 71°
2026-04-22 06:00 51.53501 -32.84116 37204 ft 451 kts 71°
2026-04-22 06:00 51.55219 -32.74411 37201 ft 452 kts 71°
2026-04-22 06:01 51.56929 -32.64700 37199 ft 452 kts 72°
2026-04-22 06:01 51.58633 -32.54971 37201 ft 452 kts 72°
2026-04-22 06:02 51.60321 -32.45280 37198 ft 453 kts 72°
2026-04-22 06:02 51.62013 -32.35514 37198 ft 453 kts 72°
2026-04-22 06:03 51.63699 -32.25724 37192 ft 454 kts 72°
2026-04-22 06:03 51.65380 -32.15913 37197 ft 454 kts 72°
2026-04-22 06:04 51.67053 -32.06093 37199 ft 455 kts 72°
2026-04-22 06:04 51.68721 -31.96245 37195 ft 455 kts 72°
2026-04-22 06:05 51.70382 -31.86384 37189 ft 456 kts 73°
2026-04-22 06:05 51.72037 -31.76503 37184 ft 457 kts 73°
2026-04-22 06:06 51.73676 -31.66661 37182 ft 457 kts 73°
2026-04-22 06:06 51.75318 -31.56744 37177 ft 458 kts 73°
2026-04-22 06:07 51.76954 -31.46801 37177 ft 458 kts 73°
2026-04-22 06:07 51.78583 -31.36846 37178 ft 459 kts 73°
2026-04-22 06:08 51.80206 -31.26869 37175 ft 459 kts 73°
2026-04-22 06:08 51.81820 -31.16886 37174 ft 459 kts 74°
2026-04-22 06:09 51.83427 -31.06890 37174 ft 459 kts 74°
2026-04-22 06:09 51.85027 -30.96880 37179 ft 460 kts 74°
2026-04-22 06:10 51.86617 -30.86862 37167 ft 460 kts 74°
2026-04-22 06:10 51.88189 -30.76902 37165 ft 460 kts 74°
2026-04-22 06:11 51.89764 -30.66871 37165 ft 460 kts 74°
2026-04-22 06:11 51.91329 -30.56833 37159 ft 460 kts 75°
2026-04-22 06:12 51.92888 -30.46775 37163 ft 460 kts 75°
2026-04-22 06:12 51.94439 -30.36707 37158 ft 460 kts 75°
2026-04-22 06:13 51.95981 -30.26632 37155 ft 461 kts 75°
2026-04-22 06:13 51.97517 -30.16531 37152 ft 461 kts 75°
2026-04-22 06:14 51.99044 -30.06429 37147 ft 461 kts 75°
2026-04-22 06:14 52.00563 -29.96307 37143 ft 461 kts 75°
2026-04-22 06:15 52.02029 -29.86176 37147 ft 461 kts 76°
2026-04-22 06:15 52.03464 -29.76087 37143 ft 461 kts 76°
2026-04-22 06:16 52.04906 -29.65929 37147 ft 461 kts 76°
2026-04-22 06:16 52.06343 -29.55773 37139 ft 461 kts 76°
2026-04-22 06:17 52.07775 -29.45592 37133 ft 461 kts 76°
2026-04-22 06:17 52.09194 -29.35427 37133 ft 461 kts 76°
2026-04-22 06:18 52.10606 -29.25253 37137 ft 461 kts 76°
2026-04-22 06:18 52.12009 -29.15077 37124 ft 461 kts 76°
2026-04-22 06:19 52.13401 -29.04902 37130 ft 461 kts 77°
2026-04-22 06:19 52.14786 -28.94710 37123 ft 461 kts 77°
2026-04-22 06:20 52.16161 -28.84524 37123 ft 460 kts 77°
2026-04-22 06:20 52.17527 -28.74336 37122 ft 460 kts 77°
2026-04-22 06:21 52.18876 -28.64201 37118 ft 461 kts 77°
2026-04-22 06:21 52.20224 -28.53995 37115 ft 460 kts 77°
2026-04-22 06:22 52.21346 -28.45443 37114 ft 460 kts 77°
2026-04-22 06:22 52.22676 -28.35238 37109 ft 460 kts 77°
2026-04-22 06:23 52.23990 -28.25097 37111 ft 460 kts 77°
2026-04-22 06:23 52.25302 -28.14886 37106 ft 460 kts 77°
2026-04-22 06:24 52.27257 -27.99543 37103 ft 460 kts 78°
2026-04-22 06:25 52.28545 -27.89331 37105 ft 459 kts 78°
2026-04-22 06:25 52.29825 -27.79112 37102 ft 459 kts 78°
2026-04-22 06:26 52.31089 -27.68941 37099 ft 459 kts 78°
2026-04-22 06:26 52.32350 -27.58724 37099 ft 459 kts 78°
2026-04-22 06:27 52.33601 -27.48506 37094 ft 458 kts 78°
2026-04-22 06:27 52.34843 -27.38276 37095 ft 458 kts 78°
2026-04-22 06:28 52.36076 -27.28052 37092 ft 458 kts 78°
2026-04-22 06:28 52.37299 -27.17827 37092 ft 458 kts 78°
2026-04-22 06:29 52.38514 -27.07601 37088 ft 458 kts 78°
2026-04-22 06:29 52.39719 -26.97372 37087 ft 458 kts 79°
2026-04-22 06:30 52.40914 -26.87142 37088 ft 457 kts 79°
2026-04-22 06:30 52.42098 -26.76921 37085 ft 457 kts 79°
2026-04-22 06:31 52.43275 -26.66693 37080 ft 456 kts 79°
2026-04-22 06:31 52.44441 -26.56471 37079 ft 456 kts 79°
2026-04-22 06:32 52.45599 -26.46238 37076 ft 456 kts 79°
2026-04-22 06:32 52.46741 -26.36069 37076 ft 457 kts 79°
2026-04-22 06:33 52.47883 -26.25821 37075 ft 456 kts 79°
2026-04-22 06:33 52.49014 -26.15578 37072 ft 456 kts 79°
2026-04-22 06:34 52.50136 -26.05326 37072 ft 456 kts 79°
2026-04-22 06:34 52.51248 -25.95077 37066 ft 456 kts 80°
2026-04-22 06:35 52.52352 -25.84821 37065 ft 456 kts 80°
2026-04-22 06:35 52.53446 -25.74572 37063 ft 456 kts 80°
2026-04-22 06:36 52.54532 -25.64307 37065 ft 456 kts 80°
2026-04-22 06:36 52.55610 -25.54044 37064 ft 456 kts 80°
2026-04-22 06:37 52.56677 -25.43776 37059 ft 455 kts 80°
2026-04-22 06:37 52.57734 -25.33516 37056 ft 455 kts 80°
2026-04-22 06:38 52.58777 -25.23306 37056 ft 455 kts 80°
2026-04-22 06:38 52.59817 -25.13037 37056 ft 455 kts 81°
2026-04-22 06:39 52.60849 -25.02755 37055 ft 455 kts 81°
2026-04-22 06:39 52.61870 -24.92482 37049 ft 455 kts 81°
2026-04-22 06:40 52.62882 -24.82207 37050 ft 455 kts 81°
2026-04-22 06:40 52.63885 -24.71922 37046 ft 455 kts 81°
2026-04-22 06:41 52.64880 -24.61632 37043 ft 455 kts 81°
2026-04-22 06:41 52.65867 -24.51328 37045 ft 455 kts 81°
2026-04-22 06:42 52.66842 -24.41043 37046 ft 454 kts 81°
2026-04-22 06:42 52.67805 -24.30807 37038 ft 454 kts 81°
2026-04-22 06:43 52.68762 -24.20518 37043 ft 455 kts 81°
2026-04-22 06:43 52.69712 -24.10220 37037 ft 455 kts 82°
2026-04-22 06:44 52.70652 -23.99912 37034 ft 454 kts 82°
2026-04-22 06:44 52.71584 -23.89604 37037 ft 454 kts 82°
2026-04-22 06:45 52.72507 -23.79281 37043 ft 454 kts 82°
2026-04-22 06:45 52.73414 -23.69024 37035 ft 454 kts 82°
2026-04-22 06:46 52.74320 -23.58691 37032 ft 454 kts 82°
2026-04-22 06:46 52.75215 -23.48375 37034 ft 454 kts 82°
2026-04-22 06:47 52.76101 -23.38034 37039 ft 454 kts 82°
2026-04-22 06:47 52.76979 -23.27696 37034 ft 454 kts 82°
2026-04-22 06:48 52.77849 -23.17365 37033 ft 454 kts 82°
2026-04-22 06:48 52.78708 -23.07024 37037 ft 454 kts 82°
2026-04-22 06:49 52.79553 -22.96749 37030 ft 454 kts 82°
2026-04-22 06:49 52.80395 -22.86398 37032 ft 454 kts 82°
2026-04-22 06:50 52.81226 -22.76057 37030 ft 454 kts 82°
2026-04-22 06:50 52.82049 -22.65704 37033 ft 454 kts 83°
2026-04-22 06:51 52.82863 -22.55353 37036 ft 454 kts 83°
2026-04-22 06:51 52.83669 -22.44989 37027 ft 454 kts 83°
2026-04-22 06:52 52.84464 -22.34631 37032 ft 454 kts 83°
2026-04-22 06:52 52.85251 -22.24263 37023 ft 454 kts 83°
2026-04-22 06:53 52.86030 -22.13888 37032 ft 454 kts 83°
2026-04-22 06:53 52.86798 -22.03511 37027 ft 454 kts 83°
2026-04-22 06:54 52.87558 -21.93129 37028 ft 454 kts 83°
2026-04-22 06:54 52.88310 -21.82735 37030 ft 454 kts 83°
2026-04-22 06:55 52.89052 -21.72344 37023 ft 454 kts 83°
2026-04-22 06:55 52.89780 -21.62019 37033 ft 454 kts 83°
2026-04-22 06:56 52.90504 -21.51625 37032 ft 454 kts 84°
2026-04-22 06:56 52.91221 -21.41222 37035 ft 454 kts 84°
2026-04-22 06:57 52.91926 -21.30826 37031 ft 454 kts 84°
2026-04-22 06:57 52.92622 -21.20416 37021 ft 454 kts 84°
2026-04-22 06:58 52.93310 -21.10011 37028 ft 454 kts 84°
2026-04-22 06:58 52.93989 -20.99593 37034 ft 455 kts 84°
2026-04-22 06:59 52.94658 -20.89169 37033 ft 455 kts 84°
2026-04-22 06:59 52.95320 -20.78740 37029 ft 455 kts 85°
2026-04-22 07:00 52.95972 -20.68303 37030 ft 455 kts 85°
2026-04-22 07:00 52.96610 -20.57939 37029 ft 455 kts 85°
2026-04-22 07:01 52.97246 -20.47491 37031 ft 455 kts 85°
2026-04-22 07:01 52.97871 -20.37036 37026 ft 455 kts 85°
2026-04-22 07:02 52.98486 -20.26589 37030 ft 455 kts 85°
2026-04-22 07:02 52.99092 -20.16131 37030 ft 455 kts 85°
2026-04-22 07:03 52.99688 -20.05680 37034 ft 455 kts 85°
2026-04-22 07:03 53.00240 -19.95199 37032 ft 455 kts 88°
2026-04-22 07:04 53.00445 -19.84718 37030 ft 454 kts 90°
2026-04-22 07:04 53.00558 -19.74311 37033 ft 454 kts 90°
2026-04-22 07:05 53.00712 -19.63824 37031 ft 454 kts 89°
2026-04-22 07:05 53.00891 -19.53336 37032 ft 455 kts 89°
2026-04-22 07:06 53.01068 -19.42830 37032 ft 455 kts 89°
2026-04-22 07:06 53.01236 -19.32322 37031 ft 455 kts 89°
2026-04-22 07:07 53.01393 -19.21821 37036 ft 455 kts 90°
2026-04-22 07:07 53.01540 -19.11311 37030 ft 455 kts 90°
2026-04-22 07:08 53.01677 -19.00811 37033 ft 455 kts 90°
2026-04-22 07:08 53.01805 -18.90302 37032 ft 455 kts 90°
2026-04-22 07:09 53.01905 -18.81576 37031 ft 455 kts 90°
2026-04-22 07:09 53.02033 -18.69349 37030 ft 455 kts 90°
2026-04-22 07:10 53.02133 -18.58846 37030 ft 455 kts 90°
2026-04-22 07:10 53.02225 -18.48348 37033 ft 455 kts 90°
2026-04-22 07:11 53.02295 -18.39546 37032 ft 455 kts 90°
2026-04-22 07:11 53.02369 -18.29042 37031 ft 455 kts 91°
2026-04-22 07:12 53.02432 -18.18539 37030 ft 455 kts 91°
2026-04-22 07:12 53.02489 -18.08083 37030 ft 455 kts 91°
2026-04-22 07:13 53.02535 -17.97566 37035 ft 455 kts 91°
2026-04-22 07:13 53.02572 -17.87059 37032 ft 455 kts 91°
2026-04-22 07:14 53.02601 -17.76544 37039 ft 455 kts 91°
2026-04-22 07:14 53.02620 -17.66022 37037 ft 455 kts 91°
2026-04-22 07:15 53.02628 -17.55512 37034 ft 455 kts 91°
2026-04-22 07:15 53.02628 -17.44982 37039 ft 455 kts 91°
2026-04-22 07:16 53.02617 -17.34469 37036 ft 455 kts 91°
2026-04-22 07:16 53.02599 -17.23944 37038 ft 455 kts 91°
2026-04-22 07:17 53.02573 -17.13431 37043 ft 455 kts 92°
2026-04-22 07:17 53.02535 -17.02968 37046 ft 456 kts 92°
2026-04-22 07:18 53.02490 -16.92443 37044 ft 455 kts 92°
2026-04-22 07:18 53.02434 -16.81933 37044 ft 455 kts 92°
2026-04-22 07:19 53.02368 -16.71409 37048 ft 456 kts 92°
2026-04-22 07:19 53.02295 -16.60890 37047 ft 456 kts 92°
2026-04-22 07:20 53.02212 -16.50357 37049 ft 456 kts 92°
2026-04-22 07:20 53.02120 -16.39831 37054 ft 456 kts 92°
2026-04-22 07:21 53.02019 -16.29368 37055 ft 456 kts 92°
2026-04-22 07:21 53.01908 -16.18847 37056 ft 456 kts 92°
2026-04-22 07:22 53.01788 -16.08331 37058 ft 455 kts 92°
2026-04-22 07:22 53.01658 -15.97812 37059 ft 456 kts 92°
2026-04-22 07:23 53.01517 -15.87280 37060 ft 456 kts 93°
2026-04-22 07:23 53.01368 -15.76746 37064 ft 456 kts 93°
2026-04-22 07:24 53.01212 -15.66226 37063 ft 456 kts 93°
2026-04-22 07:24 53.01046 -15.55702 37069 ft 456 kts 93°
2026-04-22 07:25 53.00868 -15.45175 37070 ft 456 kts 93°
2026-04-22 07:25 53.00682 -15.34663 37071 ft 456 kts 93°
2026-04-22 07:26 53.00487 -15.24139 37074 ft 456 kts 93°
2026-04-22 07:26 53.00285 -15.13677 37076 ft 456 kts 94°
2026-04-22 07:27 53.00073 -15.03154 37079 ft 457 kts 94°
2026-04-22 07:27 52.99924 -14.92595 37078 ft 458 kts 92°
2026-04-22 07:28 53.00041 -14.76737 37083 ft 458 kts 91°
2026-04-22 07:28 53.00097 -14.66167 37084 ft 458 kts 92°
2026-04-22 07:29 53.00113 -14.55584 37090 ft 459 kts 92°
2026-04-22 07:29 53.00111 -14.44979 37095 ft 459 kts 92°
2026-04-22 07:30 53.00098 -14.34467 37097 ft 459 kts 92°
2026-04-22 07:30 53.00080 -14.23867 37095 ft 459 kts 92°
2026-04-22 07:31 53.00055 -14.13270 37101 ft 459 kts 92°
2026-04-22 07:31 53.00040 -14.02653 37100 ft 461 kts 90°
2026-04-22 07:32 53.00781 -13.92048 37105 ft 463 kts 84°
2026-04-22 07:32 53.01806 -13.81481 37110 ft 464 kts 83°
2026-04-22 07:33 53.02863 -13.70896 37116 ft 465 kts 83°
2026-04-22 07:33 53.03907 -13.60291 37114 ft 465 kts 83°
2026-04-22 07:34 53.04924 -13.49730 37120 ft 466 kts 83°
2026-04-22 07:34 53.05938 -13.39076 37125 ft 466 kts 84°
2026-04-22 07:35 53.06941 -13.28413 37130 ft 467 kts 84°
2026-04-22 07:35 53.07935 -13.17727 37135 ft 468 kts 84°
2026-04-22 07:36 53.08921 -13.07028 37137 ft 468 kts 84°
2026-04-22 07:36 53.09898 -12.96318 37139 ft 469 kts 84°
2026-04-22 07:37 53.10869 -12.85570 37146 ft 469 kts 84°
2026-04-22 07:37 53.11831 -12.74821 37153 ft 470 kts 84°
2026-04-22 07:38 53.12780 -12.64100 37154 ft 471 kts 84°
2026-04-22 07:38 53.13731 -12.53303 37158 ft 471 kts 84°
2026-04-22 07:39 53.14663 -12.42536 37156 ft 472 kts 84°
2026-04-22 07:39 53.15593 -12.31649 37164 ft 473 kts 84°
2026-04-22 07:40 53.16506 -12.20799 37177 ft 473 kts 84°
2026-04-22 07:40 53.17414 -12.09931 37180 ft 474 kts 84°
2026-04-22 07:41 53.18317 -11.99045 37174 ft 474 kts 84°
2026-04-22 07:41 53.19210 -11.88150 37188 ft 474 kts 84°
2026-04-22 07:42 53.20094 -11.77239 37186 ft 475 kts 84°
2026-04-22 07:42 53.20968 -11.66311 37190 ft 476 kts 84°
2026-04-22 07:43 53.21828 -11.55435 37189 ft 476 kts 84°
2026-04-22 07:43 53.22685 -11.44464 37198 ft 477 kts 85°
2026-04-22 07:44 53.23531 -11.33479 37211 ft 477 kts 85°
2026-04-22 07:44 53.24369 -11.22482 37217 ft 478 kts 85°
2026-04-22 07:45 53.25196 -11.11471 37205 ft 478 kts 85°
2026-04-22 07:45 53.26016 -11.00425 37216 ft 479 kts 85°
2026-04-22 07:46 53.26827 -10.89381 37222 ft 479 kts 85°
2026-04-22 07:46 53.27629 -10.78317 37222 ft 480 kts 85°
2026-04-22 07:47 53.28418 -10.67248 37232 ft 480 kts 85°
2026-04-22 07:47 53.29200 -10.56160 37233 ft 481 kts 85°
2026-04-22 07:48 53.29968 -10.45102 37239 ft 482 kts 85°
2026-04-22 07:48 53.30732 -10.33965 37242 ft 483 kts 85°
2026-04-22 07:49 53.31486 -10.22797 37245 ft 483 kts 85°
2026-04-22 07:49 53.32232 -10.11612 37257 ft 484 kts 85°
2026-04-22 07:50 53.32969 -10.00390 37249 ft 485 kts 85°
2026-04-22 07:50 53.33695 -9.89158 37251 ft 486 kts 85°
2026-04-22 07:51 53.34412 -9.77907 37256 ft 486 kts 85°
2026-04-22 07:51 53.35120 -9.66640 37258 ft 487 kts 85°
2026-04-22 07:52 53.35814 -9.55431 37266 ft 488 kts 85°
2026-04-22 07:52 53.36502 -9.44117 37265 ft 488 kts 85°
2026-04-22 07:53 53.37180 -9.32795 37270 ft 489 kts 85°
2026-04-22 07:53 53.37849 -9.21464 37272 ft 490 kts 86°
2026-04-22 07:54 53.38509 -9.10099 37273 ft 490 kts 86°
2026-04-22 07:54 53.39158 -8.98715 37274 ft 491 kts 86°
2026-04-22 07:55 53.39796 -8.87310 37279 ft 492 kts 86°
2026-04-22 07:55 53.40426 -8.75880 37277 ft 493 kts 86°
2026-04-22 07:56 53.41045 -8.64432 37276 ft 494 kts 86°
2026-04-22 07:56 53.41655 -8.52958 37279 ft 495 kts 86°
2026-04-22 07:57 53.42255 -8.41467 37281 ft 495 kts 86°
2026-04-22 07:57 53.42843 -8.29960 37286 ft 496 kts 86°
2026-04-22 07:58 53.43422 -8.18429 37290 ft 496 kts 86°
2026-04-22 07:58 53.43895 -8.08829 37293 ft 497 kts 86°
2026-04-22 07:59 53.44456 -7.97250 37298 ft 498 kts 86°
2026-04-22 07:59 53.45006 -7.85654 37297 ft 499 kts 86°
2026-04-22 08:00 53.45546 -7.74037 37307 ft 500 kts 86°
2026-04-22 08:00 53.46074 -7.62407 37307 ft 500 kts 86°
2026-04-22 08:01 53.46593 -7.50750 37310 ft 501 kts 86°
2026-04-22 08:01 53.47099 -7.39146 37318 ft 502 kts 87°
2026-04-22 08:02 53.47596 -7.27453 37320 ft 502 kts 87°
2026-04-22 08:02 53.48083 -7.15745 37320 ft 503 kts 87°
2026-04-22 08:03 53.48557 -7.04017 37317 ft 504 kts 87°
2026-04-22 08:03 53.49022 -6.92261 37339 ft 504 kts 87°
2026-04-22 08:04 53.49472 -6.80565 37347 ft 505 kts 87°
2026-04-22 08:04 53.49916 -6.68798 37344 ft 505 kts 87°
2026-04-22 08:05 53.50348 -6.57021 37365 ft 506 kts 87°
2026-04-22 08:05 53.50767 -6.45214 37369 ft 506 kts 87°
2026-04-22 08:06 53.51177 -6.33393 37370 ft 507 kts 87°
2026-04-22 08:06 53.51576 -6.21547 37377 ft 508 kts 87°
2026-04-22 08:07 53.51961 -6.09758 37373 ft 508 kts 88°
2026-04-22 08:07 53.52338 -5.97837 37371 ft 508 kts 88°
2026-04-22 08:08 53.52700 -5.85963 37374 ft 509 kts 88°
2026-04-22 08:08 53.53050 -5.74153 37375 ft 509 kts 88°
2026-04-22 08:09 53.53392 -5.62249 37269 ft 510 kts 88°
2026-04-22 08:09 53.53558 -5.56306 36812 ft 510 kts 88°
2026-04-22 08:09 53.53722 -5.50325 36252 ft 512 kts 87°
2026-04-22 08:10 53.53813 -5.44321 35648 ft 514 kts 90°
2026-04-22 08:10 53.53707 -5.38316 35061 ft 515 kts 92°
2026-04-22 08:10 53.53503 -5.32292 34487 ft 516 kts 93°
2026-04-22 08:10 53.53273 -5.26265 33839 ft 518 kts 93°
2026-04-22 08:11 53.53053 -5.20219 33184 ft 519 kts 93°
2026-04-22 08:11 53.52852 -5.14152 32546 ft 521 kts 92°
2026-04-22 08:11 53.52658 -5.08069 31924 ft 522 kts 92°
2026-04-22 08:11 53.52458 -5.01952 31305 ft 524 kts 92°
2026-04-22 08:12 53.52256 -4.95831 30699 ft 525 kts 92°
2026-04-22 08:12 53.52053 -4.89696 30050 ft 526 kts 92°
2026-04-22 08:12 53.51850 -4.83563 29367 ft 525 kts 92°
2026-04-22 08:12 53.51647 -4.77455 28699 ft 521 kts 92°
2026-04-22 08:13 53.51444 -4.71412 28079 ft 515 kts 92°
2026-04-22 08:13 53.51240 -4.65441 27473 ft 510 kts 92°
2026-04-22 08:13 53.51037 -4.59579 26888 ft 506 kts 92°
2026-04-22 08:13 53.50829 -4.53637 26304 ft 501 kts 93°
2026-04-22 08:14 53.50624 -4.47896 25742 ft 497 kts 93°
2026-04-22 08:14 53.50416 -4.42128 25183 ft 493 kts 93°
2026-04-22 08:14 53.50206 -4.36399 24638 ft 488 kts 93°
2026-04-22 08:14 53.49997 -4.30735 24105 ft 484 kts 93°
2026-04-22 08:15 53.49786 -4.25115 23529 ft 480 kts 93°
2026-04-22 08:15 53.49573 -4.19532 22964 ft 476 kts 93°
2026-04-22 08:15 53.49361 -4.14019 22401 ft 471 kts 93°
2026-04-22 08:15 53.49149 -4.08560 21872 ft 466 kts 93°
2026-04-22 08:16 53.48936 -4.03159 21357 ft 461 kts 93°
2026-04-22 08:16 53.48628 -3.97827 20847 ft 456 kts 99°
2026-04-22 08:16 53.47852 -3.92709 20354 ft 450 kts 107°
2026-04-22 08:16 53.46890 -3.87753 19869 ft 444 kts 109°
2026-04-22 08:17 53.45905 -3.82890 19391 ft 437 kts 109°
2026-04-22 08:17 53.44920 -3.78091 18917 ft 431 kts 109°
2026-04-22 08:17 53.43944 -3.73369 18408 ft 425 kts 109°
2026-04-22 08:17 53.42980 -3.68719 17866 ft 419 kts 110°
2026-04-22 08:18 53.42028 -3.64135 17261 ft 414 kts 110°
2026-04-22 08:18 53.41316 -3.59485 16607 ft 411 kts 99°
2026-04-22 08:18 53.41033 -3.54745 15971 ft 406 kts 96°
2026-04-22 08:18 53.40839 -3.50059 15355 ft 401 kts 96°
2026-04-22 08:19 53.40649 -3.45475 14743 ft 384 kts 96°
2026-04-22 08:19 53.40458 -3.41012 14144 ft 383 kts 96°
2026-04-22 08:19 53.40262 -3.36586 13473 ft 379 kts 96°
2026-04-22 08:19 53.40068 -3.32267 12817 ft 370 kts 96°
2026-04-22 08:20 53.39882 -3.28131 12221 ft 343 kts 96°
2026-04-22 08:20 53.39708 -3.24298 11754 ft 317 kts 96°
2026-04-22 08:20 53.39544 -3.20738 11360 ft 294 kts 96°
2026-04-22 08:20 53.39390 -3.17433 10992 ft 276 kts 96°
2026-04-22 08:21 53.39229 -3.14230 10658 ft 274 kts 98°
2026-04-22 08:21 53.38639 -3.11258 10326 ft 268 kts 116°
2026-04-22 08:21 53.37815 -3.08457 9938 ft 266 kts 117°
2026-04-22 08:21 53.36997 -3.05693 9572 ft 264 kts 116°
2026-04-22 08:22 53.36193 -3.02942 9216 ft 262 kts 116°
2026-04-22 08:22 53.35399 -3.00215 8838 ft 259 kts 116°
2026-04-22 08:22 53.34615 -2.97511 8512 ft 257 kts 116°
2026-04-22 08:22 53.33838 -2.94826 8187 ft 256 kts 116°
2026-04-22 08:23 53.33063 -2.92151 7857 ft 254 kts 116°
2026-04-22 08:23 53.32295 -2.89501 7528 ft 253 kts 116°
2026-04-22 08:23 53.31530 -2.86866 7213 ft 251 kts 116°
2026-04-22 08:23 53.30769 -2.84243 6894 ft 250 kts 116°
2026-04-22 08:24 53.30012 -2.81637 6558 ft 248 kts 116°
2026-04-22 08:24 53.29257 -2.79044 6209 ft 247 kts 116°
2026-04-22 08:24 53.28524 -2.76518 5895 ft 246 kts 116°
2026-04-22 08:24 53.27779 -2.73964 5593 ft 243 kts 116°
2026-04-22 08:25 53.27044 -2.71442 5271 ft 238 kts 116°
2026-04-22 08:25 53.26344 -2.69047 4972 ft 221 kts 115°
2026-04-22 08:25 53.25699 -2.66833 4670 ft 208 kts 115°
2026-04-22 08:25 53.25066 -2.64659 4370 ft 208 kts 115°
2026-04-22 08:26 53.24433 -2.62493 4062 ft 206 kts 115°
2026-04-22 08:26 53.23820 -2.60411 3740 ft 193 kts 115°
2026-04-22 08:26 53.23246 -2.58462 3484 ft 184 kts 115°
2026-04-22 08:26 53.22689 -2.56555 3190 ft 181 kts 114°
2026-04-22 08:27 53.22371 -2.54562 3049 ft 179 kts 93°
2026-04-22 08:27 53.22722 -2.52558 3030 ft 186 kts 64°
2026-04-22 08:27 53.23512 -2.50829 3034 ft 188 kts 56°
2026-04-22 08:27 53.24363 -2.49175 3023 ft 188 kts 56°
2026-04-22 08:28 53.25182 -2.47495 2825 ft 186 kts 57°
2026-04-22 08:28 53.25992 -2.45827 2552 ft 183 kts 57°
2026-04-22 08:28 53.26773 -2.44230 2313 ft 171 kts 57°
2026-04-22 08:28 53.27493 -2.42756 2090 ft 159 kts 57°
2026-04-22 08:29 53.28181 -2.41346 1834 ft 151 kts 56°
2026-04-22 08:29 53.28808 -2.40064 1645 ft 134 kts 56°
2026-04-22 08:29 53.29367 -2.38915 1487 ft 123 kts 57°
2026-04-22 08:29 53.29892 -2.37833 1320 ft 119 kts 56°
2026-04-22 08:30 53.30408 -2.36770 1122 ft 120 kts 57°
2026-04-22 08:30 53.30949 -2.35657 949 ft 127 kts 54°
2026-04-22 08:30 53.31517 -2.34496 749 ft 128 kts 53°
2026-04-22 08:30 53.32080 -2.33351 573 ft 128 kts 52°
2026-04-22 08:31 53.32660 -2.32178 399 ft 134 kts 53°
2026-04-22 08:31 53.33248 -2.30972 232 ft 133 kts 53°
2026-04-22 08:31 53.34107 -2.29182 227 ft 53 kts 51°
2026-04-22 08:32 53.34323 -2.28748 225 ft 44 kts 47°
2026-04-22 08:32 53.34516 -2.28532 230 ft 29 kts 24°
2026-04-22 08:32 53.34694 -2.28407 238 ft 26 kts 29°
2026-04-22 08:32 53.34801 -2.28216 237 ft 16 kts 51°
2026-04-22 08:33 53.34872 -2.28069 239 ft 17 kts 51°
2026-04-22 08:33 53.34942 -2.27978 241 ft 9 kts 357°
2026-04-22 08:33 53.35007 -2.28038 238 ft 14 kts 324°
2026-04-22 08:33 53.35100 -2.28158 240 ft 19 kts 322°
2026-04-22 08:34 53.35216 -2.28197 241 ft 17 kts
2026-04-22 08:34 53.35337 -2.28175 245 ft 18 kts
2026-04-22 08:34 53.35459 -2.28143 248 ft 18 kts 18°
2026-04-22 08:34 53.35559 -2.28031 252 ft 17 kts 47°
2026-04-22 08:35 53.35641 -2.27899 256 ft 16 kts 21°
2026-04-22 08:35 53.35749 -2.27876 260 ft 15 kts
2026-04-22 08:35 53.35862 -2.27855 261 ft 17 kts
2026-04-22 08:35 53.35990 -2.27834 261 ft 18 kts
2026-04-22 08:36 53.36075 -2.27869 261 ft 11 kts 328°
2026-04-22 08:36 53.36138 -2.27971 261 ft 14 kts 314°
2026-04-22 08:36 53.36223 -2.28080 261 ft 16 kts 348°
2026-04-22 08:36 53.36335 -2.28021 261 ft 18 kts 40°
2026-04-22 08:37 53.36383 -2.27874 261 ft 14 kts 105°
2026-04-22 08:37 53.36349 -2.27785 261 ft 9 kts 118°
2026-04-22 08:37 53.36328 -2.27688 261 ft 5 kts 122°
2026-04-22 08:37 53.36301 -2.27672 261 ft 4 kts 180°
2026-04-22 08:38 53.36265 -2.27687 261 ft 6 kts 197°
2026-04-22 08:38 53.36261 -2.27689 261 ft 0 kts 197°